sat.trackr.live / text

‹ back to catalog

STARLINK-34344

NORAD 64159 · 2025-112P

PAYLOAD ACTIVE UNKNOWN

§ Identity

Operator
Country
US
Launch date
2025-05-27
Launch site
AFWTR
Launch vehicle
Mass (kg)
RCS (m²)

Purposes: comms

External: N2YO · Heavens-Above · Gunter

§ Orbital elements

Epoch: 2026-09-20T21:16:01.828128Z

Period
93.91 min
Inclination
97.2847°
Eccentricity
0.0000726
Mean motion
15.33453190 rev/d
Perigee alt
465.0 km
Apogee alt
466.0 km
Semi-major
6,843.7 km
B*
4.0801e-4
RAAN
310.8961°
Arg perigee
60.6316°
Mean anomaly
299.4999°
Rev number
7,280

§ Raw data

STARLINK-343441 64159U 25112P   26263.88613227  .00013123  00000+0  40801-3 0  99972 64159  97.2847 310.8961 0000726  60.6316 299.4999 15.33453190 72801

JSON: /api/v1/satellites/64159 · /tle

For live sub-satellite position, see the globe view (requires WebGL).

§ Visibility from observer

Set your observer location to see the next 7 days of passes ≥ 10°. The values pass through the URL so the page stays shareable.

No JS? Fill the form by hand. The geolocation button needs JavaScript.